カタログに戻る

STARLINK-37373

運用中通信SSO
NORAD 68848·PAYLOAD·🇺🇸 United States

打ち上げ Apr 26, 2026 から Vandenberg Space Force Base

Loading…

次のパス (今後24時間)

TLE

最新Source: CelesTrak SupGP

元期: Sep 15, 2026, 04:19 UTC

1 68848C 26094K   26258.18034722 -.00056449  00000+0 -17525-2 0  2584
2 68848  97.2837 271.3617 0001470  88.6415 187.8959 15.33463846    14

AllMySatでSTARLINK-37373をリアルタイム追跡

Download on the App Store